Zurück zum Katalog

STARLINK-1802

AktivKommunikationVLEO
NORAD 46702·PAYLOAD·🇺🇸 United States

Gestartet Oct 18, 2020 von Cape Canaveral Space Force Station

Loading…

Nächste Überflüge (nächste 24 Stunden)

TLE

AktuellSource: CelesTrak SupGP

Epoche: Sep 14, 2026, 21:40 UTC

1 46702C 20073AJ  26257.90326389  .00095615  00000+0  17947-2 0  2575
2 46702  53.1530  46.8725 0000922 283.8989 256.7654 15.47975652    17

Verfolge STARLINK-1802 in Echtzeit mit AllMySat

Download on the App Store